Volver al catálogo

STARLINK-36827

ActivoComunicacionesVLEO
NORAD 67908·PAYLOAD·🇺🇸 United States

Lanzado Feb 22, 2026 desde Vandenberg Space Force Base

Loading…

Próximos Pases (próximas 24 horas)

TLE

ActualizadoSource: CelesTrak SupGP

Época: Sep 15, 2026, 02:49 UTC

1 67908C 26036E   26258.11784722 -.00024821  00000+0 -89900-3 0  2587
2 67908  42.9996 255.6950 0001334 266.2461 327.6472 15.27591829    12

Sigue STARLINK-36827 en tiempo real con AllMySat

Download on the App Store